GW1480 Weather Reports


time (UTC)temp
C
wind
direction
speed
KPH
gust
KPH
rain 1hr
cm
rain 24hr
cm
rain mn
cm
humidity
%
barometer
mb
20260508130308 9 118 3.2 8.0 0.00 0.00 0.00 73 1019.6
20260508125126 7 132 0.0 0.0 0.00 0.00 0.00 80 1019.6
20260508123936 6 76 0.0 3.2 0.00 0.00 0.00 97 1019.3
20260508123350 5 77 0.0 0.0 0.00 0.00 0.00 98 1019.3
20260508122731 4 140 0.0 0.0 0.00 0.00 0.00 98 1019.3
20260508122120 3 86 0.0 0.0 0.00 0.00 0.00 98 1019.3
20260508121537 2 87 3.2 8.0 0.00 0.00 0.00 98 1019.3
20260508120920 2 219 0.0 0.0 0.00 0.00 0.00 98 1019.3
20260508115710 1 222 0.0 0.0 0.00 0.00 0.00 98 1019.3
20260508115148 1 227 0.0 0.0 0.00 0.00 0.00 98 1019.6
20260508114519 1 226 0.0 0.0 0.00 0.00 0.00 98 1019.3
20260508113930 1 232 0.0 0.0 0.00 0.00 0.00 98 1019.3
20260508113316 0 230 0.0 0.0 0.00 0.00 0.00 98 1018.9
20260508112719 0 235 0.0 0.0 0.00 0.00 0.00 98 1019.6
20260508112143 0 230 0.0 0.0 0.00 0.00 0.00 98 1018.9
20260508111542 0 232 0.0 0.0 0.00 0.00 0.00 98 1018.9
20260508110922 0 228 0.0 0.0 0.00 0.00 0.00 98 1018.9
20260508110326 0 226 0.0 0.0 0.00 0.00 0.00 98 1018.9
20260508105142 0 232 0.0 0.0 0.00 0.00 0.00 98 1018.9
20260508103936 0 226 0.0 0.0 0.00 0.00 0.00 98 1018.9
20260508103338 0 230 0.0 0.0 0.00 0.00 0.00 98 1018.9
20260508102715 0 226 0.0 0.0 0.00 0.00 0.00 98 1018.6
20260508102115 0 234 0.0 0.0 0.00 0.00 0.00 98 1018.9
20260508101512 0 232 0.0 0.0 0.00 0.00 0.00 98 1018.6
20260508100938 0 240 0.0 0.0 0.00 0.00 0.00 98 1018.9
20260508100331 0 235 0.0 0.0 0.00 0.00 0.00 98 1018.2
20260508095748 0 228 0.0 0.0 0.00 0.00 0.00 98 1018.6
20260508095130 0 229 0.0 0.0 0.00 0.00 0.00 98 1018.6
20260508094522 1 228 0.0 0.0 0.00 0.00 0.00 98 1018.2
20260508093943 1 230 0.0 0.0 0.00 0.00 0.00 98 1018.2
20260508092722 0 226 0.0 0.0 0.00 0.00 0.00 98 1018.2
20260508092142 0 228 0.0 0.0 0.00 0.00 0.00 98 1018.2
20260508091528 0 226 0.0 0.0 0.00 0.00 0.00 98 1018.2
20260508090932 1 224 0.0 0.0 0.00 0.00 0.00 98 1018.6
20260508085139 1 237 0.0 0.0 0.00 0.00 0.00 98 1018.2
20260508084547 1 226 0.0 0.0 0.00 0.00 0.00 98 1018.2
20260508083912 1 228 0.0 0.0 0.00 0.00 0.00 98 1018.2
20260508083313 1 229 0.0 0.0 0.00 0.00 0.00 98 1018.2
20260508082735 1 229 0.0 0.0 0.00 0.00 0.00 98 1018.2
20260508082150 1 229 0.0 0.0 0.00 0.00 0.00 98 1017.9
20260508081537 1 233 0.0 0.0 0.00 0.00 0.00 98 1018.2
20260508080328 1 220 0.0 0.0 0.00 0.00 0.00 98 1018.2
20260508075731 1 222 0.0 0.0 0.00 0.00 0.00 98 1017.9
20260508075120 1 226 0.0 0.0 0.00 0.00 0.00 98 1018.2
20260508074529 1 228 0.0 0.0 0.00 0.00 0.00 98 1017.9
20260508073327 1 227 0.0 0.0 0.00 0.00 0.00 98 1018.2
20260508072733 1 227 0.0 0.0 0.00 0.00 0.00 98 1017.9
20260508072115 1 229 0.0 0.0 0.00 0.00 0.00 98 1018.2
20260508071537 1 229 0.0 0.0 0.00 0.00 0.00 98 1018.2
20260508070951 1 229 0.0 0.0 0.00 0.00 0.00 98 1017.9
20260508070338 1 227 0.0 0.0 0.00 0.00 0.00 98 1017.9
20260508065738 1 226 0.0 0.0 0.00 0.00 0.00 98 1017.9
20260508065133 1 230 0.0 0.0 0.00 0.00 0.00 98 1017.9
20260508064520 1 240 0.0 0.0 0.00 0.00 0.00 98 1018.2
20260508063925 1 226 0.0 0.0 0.00 0.00 0.00 98 1017.9
20260508063318 1 226 0.0 0.0 0.00 0.00 0.00 98 1018.2
20260508062742 1 226 0.0 0.0 0.00 0.00 0.00 98 1018.6
20260508062146 1 233 0.0 0.0 0.00 0.00 0.00 98 1018.2
20260508061530 1 229 0.0 0.0 0.00 0.00 0.00 98 1018.2
20260508060909 1 230 0.0 0.0 0.00 0.00 0.00 98 1018.2
20260508060341 1 229 0.0 0.0 0.00 0.00 0.00 98 1018.2
20260508055751 1 230 0.0 0.0 0.00 0.00 0.00 98 1018.2
20260508055141 2 229 0.0 0.0 0.00 0.00 0.00 98 1018.2
20260508054544 2 229 0.0 0.0 0.00 0.00 0.00 98 1018.2
20260508052738 2 229 0.0 0.0 0.00 0.00 0.00 98 1017.9
20260508052132 2 227 0.0 0.0 0.00 0.00 0.00 98 1018.2
20260508051526 2 227 0.0 0.0 0.00 0.00 0.00 98 1017.9
20260508050945 2 227 0.0 0.0 0.00 0.00 0.00 97 1018.2
20260508050309 2 227 0.0 0.0 0.00 0.00 0.00 98 1018.2
20260508045724 2 229 0.0 0.0 0.00 0.00 0.00 98 1018.2
20260508045128 2 232 0.0 0.0 0.00 0.00 0.00 97 1018.2
20260508044542 2 229 0.0 0.0 0.00 0.00 0.00 97 1018.2
20260508043936 2 229 0.0 0.0 0.00 0.00 0.00 97 1018.2
20260508043347 2 229 0.0 0.0 0.00 0.00 0.00 97 1017.9
20260508042723 2 229 0.0 0.0 0.00 0.00 0.00 97 1017.9
20260508042141 2 229 0.0 0.0 0.00 0.00 0.00 97 1018.2
20260508041532 2 226 0.0 0.0 0.00 0.00 0.00 97 1017.9
20260508040318 3 226 0.0 0.0 0.00 0.00 0.00 97 1018.2
20260508035120 3 228 0.0 0.0 0.00 0.00 0.00 97 1018.2
20260508034526 3 229 0.0 0.0 0.00 0.00 0.00 97 1018.2
20260508033916 3 229 0.0 0.0 0.00 0.00 0.00 97 1018.2
20260508033321 3 229 0.0 0.0 0.00 0.00 0.00 96 1018.6
20260508032734 3 229 0.0 0.0 0.00 0.00 0.00 96 1018.6
20260508032147 3 229 0.0 0.0 0.00 0.00 0.00 96 1017.9
20260508031526 3 230 0.0 0.0 0.00 0.00 0.00 96 1018.2
20260508030931 3 227 0.0 0.0 0.00 0.00 0.00 96 1017.9
20260508030311 3 230 0.0 0.0 0.00 0.00 0.00 96 1017.9
20260508025719 4 228 0.0 0.0 0.00 0.00 0.00 96 1017.9
20260508025114 4 229 0.0 0.0 0.00 0.00 0.00 95 1017.9
20260508024525 4 229 0.0 0.0 0.00 0.00 0.00 95 1017.9
20260508023946 4 228 0.0 0.0 0.00 0.00 0.00 95 1017.9
20260508023341 5 228 0.0 0.0 0.00 0.00 0.00 95 1017.6
20260508022723 5 235 0.0 0.0 0.00 0.00 0.00 95 1017.6
20260508021515 5 229 0.0 0.0 0.00 0.00 0.00 95 1017.2
20260508020945 5 230 0.0 0.0 0.00 0.00 0.00 95 1017.2
20260508020349 5 234 0.0 0.0 0.00 0.00 0.00 95 1017.2
20260508015738 6 230 0.0 0.0 0.00 0.00 0.00 94 1017.2
20260508015145 6 227 0.0 0.0 0.00 0.00 0.00 93 1017.2
20260508014517 6 227 0.0 0.0 0.00 0.00 0.00 93 1016.9
20260508012725 7 228 0.0 0.0 0.00 0.00 0.00 91 1016.9
20260508011528 7 227 0.0 0.0 0.00 0.00 0.00 91 1016.5
20260508010935 8 222 0.0 0.0 0.00 0.00 0.00 90 1016.5
20260508010349 8 229 0.0 0.0 0.00 0.00 0.00 89 1016.5
20260508005736 8 224 0.0 0.0 0.00 0.00 0.00 88 1016.5
20260508003908 10 228 0.0 0.0 0.00 0.00 0.00 85 1016.2
20260508003340 10 226 0.0 0.0 0.00 0.00 0.00 85 1016.2
20260508002734 11 206 0.0 0.0 0.00 0.00 0.00 85 1016.2
20260508002110 11 223 0.0 0.0 0.00 0.00 0.00 83 1016.2
20260508001532 11 220 0.0 0.0 0.00 0.00 0.00 81 1015.9
20260508000949 12 241 0.0 0.0 0.00 0.00 0.00 78 1015.9
20260508000335 12 261 0.0 0.0 0.00 0.00 0.00 76 1015.5
20260507235747 13 257 0.0 0.0 0.00 0.00 0.00 73 1015.5
20260507235119 13 244 0.0 0.0 0.00 0.00 0.00 73 1015.9
20260507234551 14 288 0.0 0.0 0.00 0.00 0.00 71 1015.5
20260507233938 15 199 0.0 0.0 0.00 0.00 0.00 68 1015.2
20260507233347 16 254 0.0 0.0 0.00 0.00 0.00 65 1015.2
20260507231535 17 240 3.2 3.2 0.00 0.00 0.00 55 1015.2
20260507225744 17 198 9.7 16.1 0.00 0.00 0.00 46 1015.2
20260507225120 17 253 6.4 11.3 0.00 0.00 0.00 50 1015.2
20260507224527 17 252 6.4 8.0 0.00 0.00 0.00 51 1015.2
20260507223918 17 249 8.0 11.3 0.00 0.00 0.00 51 1015.2
20260507223338 17 258 8.0 11.3 0.00 0.00 0.00 48 1015.2
20260507222719 17 251 4.8 8.0 0.00 0.00 0.00 47 1014.9
20260507221516 17 222 6.4 16.1 0.00 0.00 0.00 50 1015.2
20260507220312 17 203 4.8 8.0 0.00 0.00 0.00 48 1014.9
20260507215738 17 251 6.4 8.0 0.00 0.00 0.00 50 1014.9
20260507215144 17 243 0.0 0.0 0.00 0.00 0.00 56 1014.5
20260507213944 18 251 0.0 0.0 0.00 0.00 0.00 47 1014.5
20260507212737 18 278 1.6 8.0 0.00 0.00 0.00 44 1014.5
20260507211532 18 250 4.8 8.0 0.00 0.00 0.00 46 1014.2
20260507210928 17 252 8.0 11.3 0.00 0.00 0.00 46 1014.2
20260507210344 17 250 6.4 8.0 0.00 0.00 0.00 47 1014.2
20260507204547 17 280 4.8 8.0 0.00 0.00 0.00 53 1014.5
20260507202737 18 285 8.0 11.3 0.00 0.00 0.00 48 1014.5
20260507202152 18 137 0.0 3.2 0.00 0.00 0.00 47 1014.5
20260507201538 18 184 3.2 8.0 0.00 0.00 0.00 48 1014.2
20260507200938 18 294 8.0 11.3 0.00 0.00 0.00 49 1014.5
20260507195752 18 200 11.3 19.3 0.00 0.00 0.00 48 1014.5
20260507195151 18 210 1.6 8.0 0.00 0.00 0.00 47 1014.5
20260507194514 18 220 6.4 8.0 0.00 0.00 0.00 44 1014.5
20260507193951 18 245 3.2 8.0 0.00 0.00 0.00 49 1014.5
20260507192732 18 262 4.8 8.0 0.00 0.00 0.00 50 1014.9
20260507192146 18 263 1.6 3.2 0.00 0.00 0.00 46 1014.9
20260507191535 18 217 4.8 8.0 0.00 0.00 0.00 46 1014.9
20260507190936 18 215 3.2 3.2 0.00 0.00 0.00 51 1015.2
20260507185724 17 240 1.6 3.2 0.00 0.00 0.00 51 1015.2
20260507185150 17 273 0.0 3.2 0.00 0.00 0.00 47 1014.9
20260507184549 17 26 11.3 16.1 0.00 0.00 0.00 53 1015.2
20260507183952 17 212 3.2 8.0 0.00 0.00 0.00 53 1015.2
20260507183308 17 251 0.0 3.2 0.00 0.00 0.00 55 1015.5
20260507182714 17 357 9.7 11.3 0.00 0.00 0.00 56 1015.2
20260507182150 17 207 0.0 3.2 0.00 0.00 0.00 57 1015.2
20260507181510 17 233 0.0 8.0 0.00 0.00 0.00 58 1015.2
20260507180928 18 263 4.8 8.0 0.00 0.00 0.00 53 1015.2
20260507180324 17 348 6.4 8.0 0.00 0.00 0.00 56 1015.2
20260507174520 17 243 9.7 11.3 0.00 0.00 0.00 55 1015.5
20260507173945 17 295 1.6 8.0 0.00 0.00 0.00 54 1015.5
20260507172732 16 285 3.2 8.0 0.00 0.00 0.00 58 1015.5
20260507172129 16 233 6.4 11.3 0.00 0.00 0.00 62 1015.5
20260507170911 15 286 0.0 0.0 0.00 0.00 0.00 56 1015.9
20260507170321 15 264 0.0 0.0 0.00 0.00 0.00 63 1015.9
20260507165750 15 235 0.0 0.0 0.00 0.00 0.00 71 1016.2
20260507165135 15 218 0.0 0.0 0.00 0.00 0.00 64 1015.9
20260507163923 16 245 0.0 0.0 0.00 0.00 0.00 65 1016.2
20260507162722 16 273 0.0 3.2 0.00 0.00 0.00 64 1016.2
20260507162152 16 237 0.0 0.0 0.00 0.00 0.00 61 1015.9
20260507161555 15 217 0.0 0.0 0.00 0.00 0.00 61 1016.2
20260507160923 15 276 0.0 0.0 0.00 0.00 0.00 65 1016.2
20260507160346 15 296 1.6 8.0 0.00 0.00 0.00 63 1016.2
20260507155731 15 261 0.0 0.0 0.00 0.00 0.00 64 1016.2
20260507155123 15 287 0.0 0.0 0.00 0.00 0.00 62 1016.5
20260507154519 15 192 0.0 0.0 0.00 0.00 0.00 68 1016.5
20260507153911 16 211 0.0 0.0 0.00 0.00 0.00 62 1016.2
20260507153316 16 240 4.8 8.0 0.00 0.00 0.00 61 1016.2
20260507152750 15 162 4.8 8.0 0.00 0.00 0.00 60 1016.2
20260507151534 15 240 0.0 0.0 0.00 0.00 0.00 61 1016.2
20260507150347 14 242 0.0 0.0 0.00 0.00 0.00 64 1016.5
20260507145715 14 275 0.0 3.2 0.00 0.00 0.00 67 1016.9
20260507145111 15 230 1.6 3.2 0.00 0.00 0.00 72 1016.9
20260507144515 15 274 3.2 8.0 0.00 0.00 0.00 68 1016.5
20260507143939 14 189 0.0 0.0 0.00 0.00 0.00 63 1016.5
20260507143320 14 170 0.0 0.0 0.00 0.00 0.00 69 1016.5
20260507142123 13 218 0.0 0.0 0.00 0.00 0.00 72 1016.2
20260507141518 13 223 0.0 0.0 0.00 0.00 0.00 75 1016.5
20260507140926 13 202 0.0 0.0 0.00 0.00 0.00 76 1016.9
20260507140342 12 215 0.0 0.0 0.00 0.00 0.00 78 1016.9
20260507135143 12 262 0.0 0.0 0.00 0.00 0.00 79 1016.9
20260507134519 12 187 0.0 0.0 0.00 0.00 0.00 84 1017.2
20260507133319 12 264 0.0 0.0 0.00 0.00 0.00 86 1017.2
20260507132743 12 238 0.0 0.0 0.00 0.00 0.00 88 1016.9
20260507132122 12 265 0.0 0.0 0.00 0.00 0.00 89 1017.2